| time (UTC) | temp C | wind direction | speed KPH | gust KPH | rain 1hr cm | rain 24hr cm | rain mn cm | humidity % | barometer mb |
| 20260906220903 | 38 | 180 | 14.5 | 14.5 | 0.00 | 0.00 | 0.00 | 30 | 1009.1 |
| 20260906215403 | 39 | 160 | 14.5 | 14.5 | 0.00 | 0.00 | 0.00 | 29 | 1009.1 |
| 20260906214903 | 39 | 160 | 14.5 | 14.5 | 0.00 | 0.00 | 0.00 | 29 | 1009.1 |
| 20260906214403 | 39 | 160 | 12.9 | 12.9 | 0.00 | 0.00 | 0.00 | 28 | 1009.2 |
| 20260906213903 | 39 | 160 | 12.9 | 12.9 | 0.00 | 0.00 | 0.00 | 28 | 1009.2 |
| 20260906213403 | 39 | 160 | 12.9 | 16.1 | 0.00 | 0.00 | 0.00 | 29 | 1009.1 |
| 20260906212903 | 39 | 120 | 16.1 | 16.1 | 0.00 | 0.00 | 0.00 | 29 | 1009.3 |
| 20260906211902 | 40 | 120 | 16.1 | 16.1 | 0.00 | 0.00 | 0.00 | 29 | 1009.3 |
| 20260906211403 | 40 | 120 | 16.1 | 16.1 | 0.00 | 0.00 | 0.00 | 29 | 1009.5 |
| 20260906210903 | 40 | 120 | 16.1 | 16.1 | 0.00 | 0.00 | 0.00 | 29 | 1009.6 |
| 20260906210403 | 40 | 120 | 16.1 | 16.1 | 0.00 | 0.00 | 0.00 | 30 | 1009.7 |
| 20260906205903 | 40 | 100 | 11.3 | 11.3 | 0.00 | 0.00 | 0.00 | 29 | 1009.8 |
| 20260906205403 | 40 | 100 | 11.3 | 11.3 | 0.00 | 0.00 | 0.00 | 30 | 1009.8 |
| 20260906204902 | 40 | 100 | 11.3 | 29.0 | 0.00 | 0.00 | 0.00 | 29 | 1009.9 |
| 20260906204403 | 40 | 130 | 9.7 | 29.0 | 0.00 | 0.00 | 0.00 | 29 | 1010.0 |
| 20260906203903 | 40 | 130 | 9.7 | 29.0 | 0.00 | 0.00 | 0.00 | 30 | 1010.0 |
| 20260906203403 | 40 | 130 | 9.7 | 32.2 | 0.00 | 0.00 | 0.00 | 29 | 1010.1 |
| 20260906202903 | 40 | 140 | 14.5 | 32.2 | 0.00 | 0.00 | 0.00 | 29 | 1010.1 |
| 20260906201903 | 39 | 140 | 14.5 | 32.2 | 0.00 | 0.00 | 0.00 | 30 | 1010.4 |
| 20260906201403 | 39 | 140 | 14.5 | 32.2 | 0.00 | 0.00 | 0.00 | 28 | 1010.5 |
| 20260906200903 | 39 | 140 | 14.5 | 32.2 | 0.00 | 0.00 | 0.00 | 28 | 1010.5 |
| 20260906200403 | 40 | 140 | 14.5 | 32.2 | 0.00 | 0.00 | 0.00 | 28 | 1010.6 |
| 20260906195903 | 40 | 90 | 8.0 | 8.0 | 0.00 | 0.00 | 0.00 | 27 | 1010.7 |
| 20260906195403 | 40 | 90 | 8.0 | 8.0 | 0.00 | 0.00 | 0.00 | 29 | 1010.7 |
| 20260906194903 | 40 | 90 | 8.0 | 14.5 | 0.00 | 0.00 | 0.00 | 28 | 1010.7 |
| 20260906193903 | 40 | 180 | 14.5 | 14.5 | 0.00 | 0.00 | 0.00 | 29 | 1010.7 |
| 20260906193403 | 40 | 180 | 14.5 | 14.5 | 0.00 | 0.00 | 0.00 | 29 | 1010.8 |
| 20260906192903 | 40 | 180 | 14.5 | 14.5 | 0.00 | 0.00 | 0.00 | 28 | 1011.0 |
| 20260906192403 | 40 | 180 | 14.5 | 14.5 | 0.00 | 0.00 | 0.00 | 29 | 1011.2 |
| 20260906191903 | 40 | 180 | 14.5 | 14.5 | 0.00 | 0.00 | 0.00 | 29 | 1011.2 |
| 20260906191403 | 40 | 180 | 14.5 | 14.5 | 0.00 | 0.00 | 0.00 | 30 | 1011.2 |
| 20260906190903 | 40 | 180 | 14.5 | 14.5 | 0.00 | 0.00 | 0.00 | 30 | 1011.2 |
| 20260906190403 | 39 | 180 | 14.5 | 14.5 | 0.00 | 0.00 | 0.00 | 31 | 1011.3 |
| 20260906185903 | 39 | 160 | 4.8 | 4.8 | 0.00 | 0.00 | 0.00 | 31 | 1011.3 |
| 20260906185403 | 39 | 160 | 4.8 | 4.8 | 0.00 | 0.00 | 0.00 | 31 | 1011.3 |
| 20260906184903 | 39 | 160 | 4.8 | 12.9 | 0.00 | 0.00 | 0.00 | 31 | 1011.5 |
| 20260906184403 | 39 | 160 | 12.9 | 12.9 | 0.00 | 0.00 | 0.00 | 31 | 1011.6 |
| 20260906183903 | 39 | 160 | 12.9 | 12.9 | 0.00 | 0.00 | 0.00 | 31 | 1011.6 |
| 20260906183403 | 38 | 160 | 12.9 | 12.9 | 0.00 | 0.00 | 0.00 | 32 | 1011.7 |
| 20260906182903 | 38 | 210 | 8.0 | 8.0 | 0.00 | 0.00 | 0.00 | 31 | 1011.8 |
| 20260906182403 | 39 | 210 | 8.0 | 8.0 | 0.00 | 0.00 | 0.00 | 31 | 1011.8 |
| 20260906181903 | 38 | 210 | 8.0 | 8.0 | 0.00 | 0.00 | 0.00 | 31 | 1011.9 |
| 20260906181403 | 38 | 210 | 8.0 | 8.0 | 0.00 | 0.00 | 0.00 | 32 | 1012.0 |
| 20260906180903 | 38 | 210 | 8.0 | 8.0 | 0.00 | 0.00 | 0.00 | 34 | 1012.0 |
| 20260906175903 | 38 | 160 | 16.1 | 16.1 | 0.00 | 0.00 | 0.00 | 32 | 1012.2 |
| 20260906175403 | 38 | 160 | 16.1 | 16.1 | 0.00 | 0.00 | 0.00 | 33 | 1012.1 |
| 20260906174903 | 38 | 160 | 16.1 | 16.1 | 0.00 | 0.00 | 0.00 | 33 | 1012.3 |
| 20260906174403 | 38 | 150 | 16.1 | 16.1 | 0.00 | 0.00 | 0.00 | 32 | 1012.4 |
| 20260906173903 | 38 | 150 | 16.1 | 16.1 | 0.00 | 0.00 | 0.00 | 32 | 1012.5 |
| 20260906173403 | 38 | 150 | 16.1 | 16.1 | 0.00 | 0.00 | 0.00 | 33 | 1012.5 |
| 20260906172903 | 38 | 100 | 9.7 | 9.7 | 0.00 | 0.00 | 0.00 | 34 | 1012.6 |
| 20260906172403 | 38 | 100 | 9.7 | 9.7 | 0.00 | 0.00 | 0.00 | 34 | 1012.6 |
| 20260906171903 | 38 | 100 | 9.7 | 9.7 | 0.00 | 0.00 | 0.00 | 34 | 1012.7 |
| 20260906170903 | 38 | 100 | 9.7 | 9.7 | 0.00 | 0.00 | 0.00 | 33 | 1012.8 |
| 20260906170403 | 38 | 100 | 9.7 | 11.3 | 0.00 | 0.00 | 0.00 | 33 | 1012.9 |
| 20260906165903 | 38 | 60 | 11.3 | 11.3 | 0.00 | 0.00 | 0.00 | 32 | 1013.0 |
| 20260906165403 | 38 | 60 | 11.3 | 11.3 | 0.00 | 0.00 | 0.00 | 32 | 1013.0 |
| 20260906163904 | 37 | 120 | 9.7 | 9.7 | 0.00 | 0.00 | 0.00 | 34 | 1013.0 |
| 20260906163403 | 37 | 120 | 9.7 | 9.7 | 0.00 | 0.00 | 0.00 | 34 | 1013.1 |
| 20260906162403 | 37 | 170 | 4.8 | 4.8 | 0.00 | 0.00 | 0.00 | 36 | 1013.1 |
| 20260906161903 | 37 | 170 | 4.8 | 4.8 | 0.00 | 0.00 | 0.00 | 36 | 1013.1 |
| 20260906161403 | 36 | 170 | 4.8 | 4.8 | 0.00 | 0.00 | 0.00 | 38 | 1013.1 |
| 20260906160903 | 36 | 170 | 4.8 | 4.8 | 0.00 | 0.00 | 0.00 | 39 | 1013.1 |
| 20260906160403 | 36 | 170 | 4.8 | 8.0 | 0.00 | 0.00 | 0.00 | 40 | 1013.1 |
| 20260906155903 | 36 | 170 | 8.0 | 8.0 | 0.00 | 0.00 | 0.00 | 41 | 1013.1 |
| 20260906155404 | 36 | 170 | 8.0 | 8.0 | 0.00 | 0.00 | 0.00 | 42 | 1013.1 |
| 20260906154903 | 35 | 170 | 8.0 | 8.0 | 0.00 | 0.00 | 0.00 | 42 | 1013.1 |
| 20260906154404 | 35 | 130 | 8.0 | 8.0 | 0.00 | 0.00 | 0.00 | 46 | 1013.1 |
| 20260906153903 | 34 | 130 | 8.0 | 8.0 | 0.00 | 0.00 | 0.00 | 46 | 1013.0 |
| 20260906153404 | 34 | 130 | 8.0 | 8.0 | 0.00 | 0.00 | 0.00 | 47 | 1013.1 |
| 20260906152903 | 33 | 130 | 8.0 | 8.0 | 0.00 | 0.00 | 0.00 | 49 | 1013.1 |
| 20260906152403 | 33 | 130 | 8.0 | 8.0 | 0.00 | 0.00 | 0.00 | 52 | 1013.0 |
| 20260906151903 | 32 | 130 | 8.0 | 8.0 | 0.00 | 0.00 | 0.00 | 52 | 1013.0 |
| 20260906151403 | 32 | 130 | 8.0 | 8.0 | 0.00 | 0.00 | 0.00 | 55 | 1013.0 |
| 20260906150904 | 31 | 130 | 8.0 | 8.0 | 0.00 | 0.00 | 0.00 | 57 | 1013.0 |
| 20260906145903 | 31 | 130 | 8.0 | 8.0 | 0.00 | 0.00 | 0.00 | 63 | 1013.1 |
| 20260906145404 | 30 | 130 | 8.0 | 8.0 | 0.00 | 0.00 | 0.00 | 64 | 1013.2 |
| 20260906144903 | 30 | 130 | 8.0 | 8.0 | 0.00 | 0.00 | 0.00 | 66 | 1013.2 |
| 20260906144403 | 29 | 140 | 8.0 | 8.0 | 0.00 | 0.00 | 0.00 | 67 | 1013.2 |
| 20260906143903 | 37 | 140 | 8.0 | 8.0 | 0.00 | 0.00 | 0.00 | 31 | 1013.2 |
| 20260906143404 | 37 | 140 | 8.0 | 8.0 | 0.00 | 0.00 | 0.00 | 31 | 1013.2 |
| 20260906142903 | 37 | 130 | 8.0 | 8.0 | 0.00 | 0.00 | 0.00 | 31 | 1013.2 |
| 20260906142403 | 37 | 130 | 8.0 | 8.0 | 0.00 | 0.00 | 0.00 | 31 | 1013.2 |
| 20260906141903 | 37 | 130 | 8.0 | 8.0 | 0.00 | 0.00 | 0.00 | 31 | 1013.2 |
| 20260906141403 | 37 | 130 | 8.0 | 8.0 | 0.00 | 0.00 | 0.00 | 31 | 1013.3 |
| 20260906140404 | 37 | 130 | 8.0 | 8.0 | 0.00 | 0.00 | 0.00 | 31 | 1013.3 |
| 20260906135903 | 37 | 120 | 4.8 | 4.8 | 0.00 | 0.00 | 0.00 | 31 | 1013.2 |
| 20260906134904 | 37 | 120 | 4.8 | 4.8 | 0.00 | 0.00 | 0.00 | 31 | 1013.2 |
| 20260906134403 | 37 | 130 | 4.8 | 4.8 | 0.00 | 0.00 | 0.00 | 31 | 1013.2 |
| 20260906133903 | 37 | 130 | 4.8 | 4.8 | 0.00 | 0.00 | 0.00 | 31 | 1013.1 |
| 20260906133404 | 37 | 130 | 4.8 | 8.0 | 0.00 | 0.00 | 0.00 | 31 | 1013.0 |
| 20260906132904 | 37 | 190 | 8.0 | 8.0 | 0.00 | 0.00 | 0.00 | 31 | 1013.0 |
| 20260906132406 | 37 | 190 | 8.0 | 8.0 | 0.00 | 0.00 | 0.00 | 31 | 1013.0 |
| 20260906131904 | 37 | 190 | 8.0 | 8.0 | 0.00 | 0.00 | 0.00 | 31 | 1012.9 |
| 20260906131403 | 37 | 190 | 8.0 | 8.0 | 0.00 | 0.00 | 0.00 | 31 | 1012.9 |
| 20260906130903 | 37 | 190 | 8.0 | 8.0 | 0.00 | 0.00 | 0.00 | 31 | 1012.8 |
| 20260906130403 | 37 | 190 | 8.0 | 8.0 | 0.00 | 0.00 | 0.00 | 31 | 1012.8 |
| 20260906125904 | 37 | 190 | 8.0 | 8.0 | 0.00 | 0.00 | 0.00 | 31 | 1012.9 |
| 20260906125403 | 37 | 190 | 8.0 | 8.0 | 0.00 | 0.00 | 0.00 | 31 | 1012.9 |
| 20260906124903 | 37 | 190 | 8.0 | 8.0 | 0.00 | 0.00 | 0.00 | 31 | 1012.9 |
| 20260906123903 | 37 | 190 | 8.0 | 8.0 | 0.00 | 0.00 | 0.00 | 31 | 1012.8 |
| 20260906123404 | 37 | 190 | 8.0 | 8.0 | 0.00 | 0.00 | 0.00 | 31 | 1012.7 |
| 20260906122903 | 37 | 190 | 8.0 | 8.0 | 0.00 | 0.00 | 0.00 | 31 | 1012.7 |
| 20260906122403 | 37 | 190 | 8.0 | 8.0 | 0.00 | 0.00 | 0.00 | 31 | 1012.6 |
| 20260906121904 | 37 | 190 | 8.0 | 8.0 | 0.00 | 0.00 | 0.00 | 31 | 1012.6 |
| 20260906120903 | 37 | 190 | 8.0 | 8.0 | 0.00 | 0.00 | 0.00 | 31 | 1012.5 |
| 20260906120404 | 37 | 190 | 8.0 | 8.0 | 0.00 | 0.00 | 0.00 | 31 | 1012.5 |
| 20260906115904 | 37 | 190 | 8.0 | 8.0 | 0.00 | 0.00 | 0.00 | 31 | 1012.5 |
| 20260906115404 | 37 | 190 | 8.0 | 8.0 | 0.00 | 0.00 | 0.00 | 31 | 1012.5 |
| 20260906114403 | 37 | 190 | 8.0 | 8.0 | 0.00 | 0.00 | 0.00 | 31 | 1012.3 |
| 20260906113904 | 37 | 190 | 6.4 | 8.0 | 0.00 | 0.00 | 0.00 | 31 | 1012.3 |
| 20260906113404 | 37 | 190 | 8.0 | 8.0 | 0.00 | 0.00 | 0.00 | 31 | 1012.2 |
| 20260906112904 | 37 | 190 | 8.0 | 8.0 | 0.00 | 0.00 | 0.00 | 31 | 1012.1 |
| 20260906112403 | 37 | 190 | 8.0 | 8.0 | 0.00 | 0.00 | 0.00 | 31 | 1012.0 |
| 20260906111903 | 37 | 190 | 8.0 | 8.0 | 0.00 | 0.00 | 0.00 | 31 | 1012.1 |
| 20260906111404 | 37 | 190 | 8.0 | 8.0 | 0.00 | 0.00 | 0.00 | 31 | 1012.0 |
| 20260906110904 | 37 | 190 | 8.0 | 8.0 | 0.00 | 0.00 | 0.00 | 31 | 1012.0 |
| 20260906110404 | 37 | 190 | 8.0 | 8.0 | 0.00 | 0.00 | 0.00 | 31 | 1012.0 |
| 20260906105903 | 37 | 190 | 8.0 | 8.0 | 0.00 | 0.00 | 0.00 | 31 | 1011.9 |
| 20260906105404 | 37 | 190 | 8.0 | 8.0 | 0.00 | 0.00 | 0.00 | 31 | 1011.8 |
| 20260906104904 | 37 | 190 | 8.0 | 8.0 | 0.00 | 0.00 | 0.00 | 31 | 1011.7 |
| 20260906104404 | 37 | 190 | 8.0 | 8.0 | 0.00 | 0.00 | 0.00 | 31 | 1011.7 |
| 20260906103904 | 37 | 190 | 8.0 | 8.0 | 0.00 | 0.00 | 0.00 | 31 | 1011.7 |
| 20260906103403 | 37 | 190 | 8.0 | 8.0 | 0.00 | 0.00 | 0.00 | 31 | 1011.7 |
| 20260906102904 | 37 | 190 | 8.0 | 8.0 | 0.00 | 0.00 | 0.00 | 31 | 1011.6 |
| 20260906102403 | 37 | 190 | 8.0 | 8.0 | 0.00 | 0.00 | 0.00 | 31 | 1011.7 |
| 20260906101903 | 37 | 190 | 8.0 | 8.0 | 0.00 | 0.00 | 0.00 | 31 | 1011.7 |
| 20260906101405 | 37 | 190 | 8.0 | 8.0 | 0.00 | 0.00 | 0.00 | 31 | 1011.6 |
| 20260906100904 | 37 | 190 | 8.0 | 8.0 | 0.00 | 0.00 | 0.00 | 31 | 1011.6 |
| 20260906100404 | 37 | 190 | 8.0 | 8.0 | 0.00 | 0.00 | 0.00 | 31 | 1011.6 |
| 20260906095904 | 37 | 190 | 8.0 | 8.0 | 0.00 | 0.00 | 0.00 | 31 | 1011.6 |
| 20260906095403 | 37 | 190 | 8.0 | 8.0 | 0.00 | 0.00 | 0.00 | 31 | 1011.5 |
| 20260906094903 | 37 | 190 | 8.0 | 8.0 | 0.00 | 0.00 | 0.00 | 31 | 1011.5 |
| 20260906094404 | 37 | 190 | 8.0 | 8.0 | 0.00 | 0.00 | 0.00 | 31 | 1011.5 |
| 20260906093404 | 37 | 190 | 8.0 | 8.0 | 0.00 | 0.00 | 0.00 | 31 | 1011.5 |
| 20260906092404 | 37 | 190 | 8.0 | 8.0 | 0.00 | 0.00 | 0.00 | 31 | 1011.5 |
| 20260906091904 | 37 | 190 | 8.0 | 8.0 | 0.00 | 0.00 | 0.00 | 31 | 1011.5 |
| 20260906091404 | 37 | 190 | 8.0 | 8.0 | 0.00 | 0.00 | 0.00 | 31 | 1011.5 |
| 20260906090404 | 37 | 190 | 8.0 | 8.0 | 0.00 | 0.00 | 0.00 | 31 | 1011.4 |
| 20260906085904 | 37 | 190 | 8.0 | 8.0 | 0.00 | 0.00 | 0.00 | 31 | 1011.3 |
| 20260906085404 | 37 | 190 | 8.0 | 8.0 | 0.00 | 0.00 | 0.00 | 31 | 1011.4 |
| 20260906084904 | 37 | 190 | 8.0 | 8.0 | 0.00 | 0.00 | 0.00 | 31 | 1011.3 |
| 20260906084404 | 37 | 190 | 8.0 | 8.0 | 0.00 | 0.00 | 0.00 | 31 | 1011.3 |
| 20260906082903 | 37 | 190 | 8.0 | 8.0 | 0.00 | 0.00 | 0.00 | 31 | 1011.1 |
| 20260906082404 | 37 | 190 | 8.0 | 8.0 | 0.00 | 0.00 | 0.00 | 31 | 1011.2 |
| 20260906081904 | 37 | 190 | 8.0 | 8.0 | 0.00 | 0.00 | 0.00 | 31 | 1011.1 |
| 20260906081404 | 37 | 190 | 8.0 | 8.0 | 0.00 | 0.00 | 0.00 | 31 | 1011.2 |
| 20260906080904 | 37 | 190 | 8.0 | 8.0 | 0.00 | 0.00 | 0.00 | 31 | 1011.2 |
| 20260906080404 | 37 | 190 | 8.0 | 8.0 | 0.00 | 0.00 | 0.00 | 31 | 1011.2 |
| 20260906075903 | 37 | 190 | 8.0 | 8.0 | 0.00 | 0.00 | 0.00 | 31 | 1011.2 |
| 20260906074903 | 37 | 190 | 8.0 | 8.0 | 0.00 | 0.00 | 0.00 | 31 | 1011.2 |
| 20260906074404 | 37 | 190 | 8.0 | 8.0 | 0.00 | 0.00 | 0.00 | 31 | 1011.1 |
| 20260906073904 | 37 | 190 | 8.0 | 8.0 | 0.00 | 0.00 | 0.00 | 31 | 1011.1 |
| 20260906073404 | 37 | 190 | 8.0 | 8.0 | 0.00 | 0.00 | 0.00 | 31 | 1011.1 |
| 20260906072404 | 37 | 190 | 8.0 | 8.0 | 0.00 | 0.00 | 0.00 | 31 | 1010.9 |
| 20260906071904 | 37 | 190 | 8.0 | 8.0 | 0.00 | 0.00 | 0.00 | 31 | 1010.8 |
| 20260906071404 | 37 | 190 | 8.0 | 8.0 | 0.00 | 0.00 | 0.00 | 31 | 1010.9 |
| 20260906070903 | 37 | 190 | 8.0 | 8.0 | 0.00 | 0.00 | 0.00 | 31 | 1011.0 |
| 20260906070404 | 37 | 190 | 8.0 | 8.0 | 0.00 | 0.00 | 0.00 | 31 | 1011.1 |
| 20260906065904 | 37 | 190 | 8.0 | 8.0 | 0.00 | 0.00 | 0.00 | 31 | 1011.1 |
| 20260906065403 | 37 | 190 | 8.0 | 8.0 | 0.00 | 0.00 | 0.00 | 31 | 1011.2 |
| 20260906064903 | 37 | 190 | 8.0 | 8.0 | 0.00 | 0.00 | 0.00 | 31 | 1011.3 |
| 20260906064404 | 37 | 190 | 8.0 | 8.0 | 0.00 | 0.00 | 0.00 | 31 | 1011.2 |
| 20260906063904 | 37 | 190 | 8.0 | 8.0 | 0.00 | 0.00 | 0.00 | 31 | 1011.2 |
| 20260906063404 | 37 | 190 | 8.0 | 8.0 | 0.00 | 0.00 | 0.00 | 31 | 1011.2 |
| 20260906062905 | 37 | 190 | 8.0 | 8.0 | 0.00 | 0.00 | 0.00 | 31 | 1011.1 |
| 20260906062404 | 37 | 190 | 8.0 | 8.0 | 0.00 | 0.00 | 0.00 | 31 | 1011.1 |
| 20260906061904 | 37 | 190 | 8.0 | 8.0 | 0.00 | 0.00 | 0.00 | 31 | 1011.3 |
| 20260906061404 | 37 | 190 | 8.0 | 8.0 | 0.00 | 0.00 | 0.00 | 31 | 1011.3 |
| 20260906060904 | 37 | 190 | 8.0 | 8.0 | 0.00 | 0.00 | 0.00 | 31 | 1011.3 |
| 20260906060403 | 37 | 190 | 8.0 | 8.0 | 0.00 | 0.00 | 0.00 | 31 | 1011.3 |
| 20260906055853 | 37 | 190 | 8.0 | 8.0 | 0.00 | 0.00 | 0.00 | 31 | 1011.4 |
| 20260906055354 | 37 | 190 | 8.0 | 8.0 | 0.00 | 0.00 | 0.00 | 31 | 1011.3 |
| 20260906054853 | 37 | 190 | 8.0 | 8.0 | 0.00 | 0.00 | 0.00 | 31 | 1011.3 |
| 20260906054354 | 37 | 190 | 8.0 | 8.0 | 0.00 | 0.00 | 0.00 | 31 | 1011.2 |
| 20260906053853 | 37 | 190 | 8.0 | 8.0 | 0.00 | 0.00 | 0.00 | 31 | 1011.1 |
| 20260906053353 | 37 | 190 | 8.0 | 8.0 | 0.00 | 0.00 | 0.00 | 31 | 1011.1 |
| 20260906052854 | 37 | 180 | 8.0 | 8.0 | 0.00 | 0.00 | 0.00 | 31 | 1011.2 |
| 20260906052354 | 37 | 180 | 8.0 | 8.0 | 0.00 | 0.00 | 0.00 | 31 | 1011.2 |
| 20260906051353 | 37 | 180 | 8.0 | 8.0 | 0.00 | 0.00 | 0.00 | 31 | 1011.1 |
| 20260906050854 | 37 | 180 | 8.0 | 8.0 | 0.00 | 0.00 | 0.00 | 31 | 1011.2 |
| 20260906050354 | 37 | 180 | 8.0 | 8.0 | 0.00 | 0.00 | 0.00 | 31 | 1011.3 |
| 20260906045854 | 37 | 190 | 4.8 | 4.8 | 0.00 | 0.00 | 0.00 | 31 | 1011.4 |
| 20260906045354 | 37 | 190 | 4.8 | 4.8 | 0.00 | 0.00 | 0.00 | 31 | 1011.4 |
| 20260906044854 | 37 | 190 | 4.8 | 11.3 | 0.00 | 0.00 | 0.00 | 31 | 1011.3 |
| 20260906044354 | 37 | 100 | 11.3 | 11.3 | 0.00 | 0.00 | 0.00 | 31 | 1011.3 |
| 20260906043853 | 37 | 100 | 11.3 | 11.3 | 0.00 | 0.00 | 0.00 | 31 | 1011.2 |
| 20260906042853 | 37 | 250 | 4.8 | 4.8 | 0.00 | 0.00 | 0.00 | 31 | 1011.0 |
| 20260906042354 | 37 | 250 | 4.8 | 4.8 | 0.00 | 0.00 | 0.00 | 31 | 1011.1 |
| 20260906041854 | 37 | 250 | 4.8 | 4.8 | 0.00 | 0.00 | 0.00 | 31 | 1011.1 |
| 20260906040854 | 37 | 250 | 4.8 | 4.8 | 0.00 | 0.00 | 0.00 | 31 | 1011.3 |
| 20260906040354 | 37 | 250 | 4.8 | 4.8 | 0.00 | 0.00 | 0.00 | 31 | 1011.2 |
| 20260906035354 | 37 | 250 | 4.8 | 4.8 | 0.00 | 0.00 | 0.00 | 31 | 1011.3 |
| 20260906034854 | 37 | 250 | 4.8 | 8.0 | 0.00 | 0.00 | 0.00 | 31 | 1011.3 |
| 20260906034401 | 37 | 150 | 8.0 | 8.0 | 0.00 | 0.00 | 0.00 | 31 | 1011.3 |
| 20260906033854 | 37 | 150 | 8.0 | 8.0 | 0.00 | 0.00 | 0.00 | 31 | 1011.2 |
| 20260906033353 | 37 | 150 | 8.0 | 8.0 | 0.00 | 0.00 | 0.00 | 31 | 1011.1 |
| 20260906032354 | 37 | 150 | 8.0 | 8.0 | 0.00 | 0.00 | 0.00 | 31 | 1011.1 |
| 20260906031853 | 37 | 150 | 8.0 | 8.0 | 0.00 | 0.00 | 0.00 | 31 | 1011.0 |
| 20260906031354 | 37 | 150 | 8.0 | 8.0 | 0.00 | 0.00 | 0.00 | 31 | 1011.0 |
| 20260906030854 | 37 | 150 | 8.0 | 8.0 | 0.00 | 0.00 | 0.00 | 31 | 1010.9 |
| 20260906030354 | 37 | 150 | 8.0 | 8.0 | 0.00 | 0.00 | 0.00 | 31 | 1010.8 |
| 20260906025854 | 37 | 150 | 8.0 | 8.0 | 0.00 | 0.00 | 0.00 | 31 | 1010.8 |
| 20260906025354 | 37 | 150 | 8.0 | 8.0 | 0.00 | 0.00 | 0.00 | 31 | 1010.7 |
| 20260906024854 | 37 | 150 | 8.0 | 8.0 | 0.00 | 0.00 | 0.00 | 31 | 1010.7 |
| 20260906023854 | 37 | 150 | 8.0 | 8.0 | 0.00 | 0.00 | 0.00 | 31 | 1010.6 |
| 20260906023354 | 37 | 150 | 8.0 | 8.0 | 0.00 | 0.00 | 0.00 | 31 | 1010.5 |
| 20260906022354 | 37 | 150 | 8.0 | 8.0 | 0.00 | 0.00 | 0.00 | 31 | 1010.3 |
| 20260906021853 | 37 | 150 | 8.0 | 8.0 | 0.00 | 0.00 | 0.00 | 31 | 1010.3 |
| 20260906021353 | 37 | 150 | 8.0 | 8.0 | 0.00 | 0.00 | 0.00 | 31 | 1010.3 |
| 20260906020854 | 37 | 150 | 8.0 | 8.0 | 0.00 | 0.00 | 0.00 | 31 | 1010.2 |
| 20260906020354 | 37 | 150 | 8.0 | 8.0 | 0.00 | 0.00 | 0.00 | 31 | 1010.2 |
| 20260906015854 | 37 | 150 | 8.0 | 8.0 | 0.00 | 0.00 | 0.00 | 31 | 1010.1 |
| 20260906015353 | 37 | 150 | 8.0 | 8.0 | 0.00 | 0.00 | 0.00 | 31 | 1010.1 |
| 20260906014854 | 37 | 150 | 8.0 | 8.0 | 0.00 | 0.00 | 0.00 | 31 | 1010.1 |
| 20260906014354 | 37 | 150 | 8.0 | 8.0 | 0.00 | 0.00 | 0.00 | 31 | 1010.1 |
| 20260906013854 | 37 | 150 | 8.0 | 8.0 | 0.00 | 0.00 | 0.00 | 31 | 1010.0 |
| 20260906013354 | 37 | 150 | 8.0 | 8.0 | 0.00 | 0.00 | 0.00 | 31 | 1009.8 |
| 20260906012854 | 37 | 150 | 8.0 | 8.0 | 0.00 | 0.00 | 0.00 | 31 | 1009.8 |
| 20260906012354 | 37 | 150 | 8.0 | 8.0 | 0.00 | 0.00 | 0.00 | 31 | 1009.7 |
| 20260906011854 | 37 | 150 | 8.0 | 8.0 | 0.00 | 0.00 | 0.00 | 31 | 1009.6 |
| 20260906011353 | 37 | 150 | 8.0 | 8.0 | 0.00 | 0.00 | 0.00 | 31 | 1009.6 |
| 20260906010854 | 37 | 150 | 8.0 | 8.0 | 0.00 | 0.00 | 0.00 | 31 | 1009.5 |
| 20260906010354 | 37 | 150 | 8.0 | 8.0 | 0.00 | 0.00 | 0.00 | 31 | 1009.5 |
| 20260906005854 | 37 | 150 | 8.0 | 8.0 | 0.00 | 0.00 | 0.00 | 31 | 1009.6 |
| 20260906005354 | 37 | 150 | 8.0 | 8.0 | 0.00 | 0.00 | 0.00 | 31 | 1009.5 |
| 20260906004354 | 37 | 140 | 9.7 | 9.7 | 0.00 | 0.00 | 0.00 | 31 | 1009.4 |
| 20260906003854 | 37 | 140 | 9.7 | 9.7 | 0.00 | 0.00 | 0.00 | 31 | 1009.4 |
| 20260906003354 | 37 | 140 | 9.7 | 11.3 | 0.00 | 0.00 | 0.00 | 31 | 1009.3 |
| 20260906002354 | 37 | 150 | 11.3 | 11.3 | 0.00 | 0.00 | 0.00 | 31 | 1009.3 |
| 20260906001854 | 37 | 150 | 11.3 | 11.3 | 0.00 | 0.00 | 0.00 | 31 | 1009.3 |
| 20260906000854 | 37 | 150 | 11.3 | 11.3 | 0.00 | 0.00 | 0.00 | 31 | 1009.3 |
| 20260906000356 | 37 | 150 | 11.3 | 14.5 | 0.00 | 0.00 | 0.00 | 31 | 1009.2 |
| 20260905235854 | 37 | 130 | 14.5 | 14.5 | 0.00 | 0.00 | 0.00 | 31 | 1009.2 |
| 20260905235354 | 37 | 130 | 14.5 | 14.5 | 0.00 | 0.00 | 0.00 | 31 | 1009.2 |
| 20260905234354 | 37 | 140 | 12.9 | 12.9 | 0.00 | 0.00 | 0.00 | 31 | 1009.1 |
| 20260905233854 | 37 | 140 | 12.9 | 12.9 | 0.00 | 0.00 | 0.00 | 31 | 1009.0 |
| 20260905233355 | 37 | 140 | 12.9 | 16.1 | 0.00 | 0.00 | 0.00 | 31 | 1009.0 |
| 20260905232854 | 37 | 110 | 16.1 | 16.1 | 0.00 | 0.00 | 0.00 | 31 | 1009.0 |
| 20260905231854 | 38 | 110 | 16.1 | 16.1 | 0.00 | 0.00 | 0.00 | 30 | 1009.0 |
| 20260905231354 | 38 | 110 | 16.1 | 16.1 | 0.00 | 0.00 | 0.00 | 30 | 1009.0 |
| 20260905230354 | 38 | 110 | 16.1 | 16.1 | 0.00 | 0.00 | 0.00 | 30 | 1009.1 |
| 20260905225854 | 38 | 140 | 16.1 | 16.1 | 0.00 | 0.00 | 0.00 | 30 | 1009.0 |
| 20260905224854 | 39 | 140 | 16.1 | 16.1 | 0.00 | 0.00 | 0.00 | 29 | 1009.0 |
| 20260905224354 | 39 | 180 | 11.3 | 11.3 | 0.00 | 0.00 | 0.00 | 30 | 1008.9 |
| 20260905223854 | 39 | 180 | 11.3 | 11.3 | 0.00 | 0.00 | 0.00 | 30 | 1009.0 |
| 20260905223355 | 38 | 180 | 11.3 | 11.3 | 0.00 | 0.00 | 0.00 | 30 | 1009.0 |
| 20260905222854 | 38 | 120 | 9.7 | 9.7 | 0.00 | 0.00 | 0.00 | 30 | 1009.0 |
| 20260905222354 | 38 | 120 | 9.7 | 9.7 | 0.00 | 0.00 | 0.00 | 30 | 1009.0 |
| 20260905221854 | 38 | 120 | 9.7 | 9.7 | 0.00 | 0.00 | 0.00 | 30 | 1009.0 |